Location: Home
(42.5358°N, 72.7383°W)
Time: 05:08:56
(UTC-05:00)

A-11 Canister half - Pass Details

Date: 30 November 2021
Orbit: 1524 x 1684 km, 47.3° (Epoch: 17 January)

Event Time Altitude Azimuth Distance (km) Brightness Sun altitude
Exits shadow 03:40:14 80° 320° (NW) 1,690 8.9 -36.2°
Maximum altitude 03:40:30 81° 341° (NNW) 1,686 8.9 -36.2°
Drops below altitude 10° 03:50:28 10° 69° (ENE) 3,864 11.8 -34.3°
Sets 03:53:34 0° 71° (ENE) 4,830 12.6 -33.8°
